| time (UTC) | temp F | wind direction | speed MPH | gust MPH | rain 1hr in | rain 24hr in | rain mn in | humidity % | barometer mb |
| 20260902045530 | 70 | 227 | 0.0 | 2.0 | 0.00 | 0.00 | 0.00 | 84 | 1014.6 |
| 20260902045017 | 70 | 227 | 0.0 | 2.0 | 0.00 | 0.00 | 0.00 | 84 | 1014.5 |
| 20260902044523 | 70 | 227 | 0.0 | 1.0 | 0.00 | 0.00 | 0.00 | 84 | 1014.5 |
| 20260902044024 | 70 | 227 | 0.0 | 5.0 | 0.00 | 0.00 | 0.00 | 84 | 1014.5 |
| 20260902043530 | 70 | 227 | 0.0 | 5.0 | 0.00 | 0.00 | 0.00 | 84 | 1014.4 |
| 20260902043031 | 70 | 234 | 0.0 | 2.0 | 0.00 | 0.00 | 0.00 | 83 | 1014.3 |
| 20260902042534 | 70 | 246 | 0.0 | 5.0 | 0.00 | 0.00 | 0.00 | 83 | 1014.3 |
| 20260902042040 | 70 | 246 | 0.0 | 5.0 | 0.00 | 0.00 | 0.00 | 83 | 1014.2 |
| 20260902041541 | 70 | 215 | 0.0 | 4.0 | 0.00 | 0.00 | 0.00 | 83 | 1014.2 |
| 20260902041045 | 70 | 215 | 1.0 | 4.0 | 0.00 | 0.00 | 0.00 | 83 | 1014.0 |
| 20260902040520 | 70 | 223 | 1.0 | 3.0 | 0.00 | 0.00 | 0.00 | 83 | 1013.9 |
| 20260902040024 | 70 | 223 | 0.0 | 2.0 | 0.00 | 0.00 | 0.00 | 83 | 1013.8 |
| 20260902035527 | 70 | 270 | 0.0 | 2.0 | 0.00 | 0.00 | 0.00 | 83 | 1013.7 |
| 20260902035028 | 70 | 270 | 0.0 | 2.0 | 0.00 | 0.00 | 0.00 | 83 | 1013.5 |
| 20260902034530 | 70 | 270 | 0.0 | 5.0 | 0.00 | 0.00 | 0.00 | 83 | 1013.4 |
| 20260902034034 | 70 | 271 | 1.0 | 5.0 | 0.00 | 0.00 | 0.00 | 83 | 1013.3 |
| 20260902033542 | 70 | 250 | 0.0 | 4.0 | 0.00 | 0.00 | 0.00 | 83 | 1013.3 |
| 20260902033022 | 71 | 225 | 0.0 | 5.0 | 0.00 | 0.00 | 0.00 | 83 | 1013.1 |
| 20260902032529 | 71 | 267 | 1.0 | 6.0 | 0.00 | 0.00 | 0.00 | 84 | 1013.1 |
| 20260902032029 | 71 | 251 | 2.0 | 6.0 | 0.00 | 0.00 | 0.00 | 84 | 1013.0 |
| 20260902031530 | 71 | 269 | 2.0 | 4.0 | 0.00 | 0.00 | 0.00 | 83 | 1013.0 |
| 20260902031038 | 71 | 261 | 0.0 | 3.0 | 0.00 | 0.00 | 0.00 | 83 | 1013.0 |
| 20260902030519 | 71 | 231 | 1.0 | 4.0 | 0.00 | 0.00 | 0.00 | 83 | 1012.9 |
| 20260902030024 | 71 | 217 | 1.0 | 5.0 | 0.00 | 0.00 | 0.00 | 83 | 1012.9 |
| 20260902025528 | 71 | 259 | 1.0 | 5.0 | 0.00 | 0.00 | 0.00 | 83 | 1012.9 |
| 20260902025032 | 71 | 266 | 1.0 | 5.0 | 0.00 | 0.00 | 0.00 | 83 | 1012.9 |
| 20260902024534 | 71 | 246 | 1.0 | 7.0 | 0.00 | 0.00 | 0.00 | 83 | 1012.8 |
| 20260902024041 | 72 | 292 | 2.0 | 7.0 | 0.00 | 0.00 | 0.00 | 82 | 1012.8 |
| 20260902023520 | 72 | 282 | 1.0 | 7.0 | 0.00 | 0.00 | 0.00 | 82 | 1012.8 |
| 20260902023019 | 72 | 244 | 2.0 | 5.0 | 0.00 | 0.00 | 0.00 | 82 | 1012.8 |
| 20260902022524 | 72 | 266 | 2.0 | 7.0 | 0.00 | 0.00 | 0.00 | 81 | 1012.8 |
| 20260902022028 | 72 | 198 | 1.0 | 7.0 | 0.00 | 0.00 | 0.00 | 82 | 1012.7 |
| 20260902021527 | 72 | 267 | 3.0 | 7.0 | 0.00 | 0.00 | 0.00 | 81 | 1012.8 |
| 20260902021027 | 73 | 270 | 2.0 | 6.0 | 0.00 | 0.00 | 0.00 | 81 | 1012.8 |
| 20260902020529 | 73 | 309 | 2.0 | 6.0 | 0.00 | 0.00 | 0.00 | 80 | 1012.8 |
| 20260902020032 | 73 | 227 | 2.0 | 6.0 | 0.00 | 0.00 | 0.00 | 80 | 1012.8 |
| 20260902015538 | 73 | 229 | 3.0 | 7.0 | 0.00 | 0.00 | 0.00 | 79 | 1012.9 |
| 20260902015045 | 74 | 246 | 4.0 | 7.0 | 0.00 | 0.00 | 0.00 | 79 | 1012.8 |
| 20260902014525 | 74 | 269 | 2.0 | 8.0 | 0.00 | 0.00 | 0.00 | 78 | 1012.8 |
| 20260902014023 | 74 | 291 | 4.0 | 8.0 | 0.00 | 0.00 | 0.00 | 77 | 1012.8 |
| 20260902013546 | 75 | 284 | 4.0 | 6.0 | 0.00 | 0.00 | 0.00 | 76 | 1012.7 |
| 20260902013026 | 75 | 271 | 2.0 | 6.0 | 0.00 | 0.00 | 0.00 | 75 | 1012.8 |
| 20260902012527 | 75 | 279 | 3.0 | 7.0 | 0.00 | 0.00 | 0.00 | 74 | 1012.8 |
| 20260902012029 | 75 | 269 | 4.0 | 8.0 | 0.00 | 0.00 | 0.00 | 74 | 1012.8 |
| 20260902011538 | 76 | 197 | 4.0 | 8.0 | 0.00 | 0.00 | 0.00 | 73 | 1012.7 |
| 20260902011041 | 76 | 273 | 2.0 | 8.0 | 0.00 | 0.00 | 0.00 | 72 | 1012.8 |
| 20260902010523 | 77 | 271 | 3.0 | 8.0 | 0.00 | 0.00 | 0.00 | 71 | 1012.8 |
| 20260902010025 | 78 | 236 | 4.0 | 8.0 | 0.00 | 0.00 | 0.00 | 70 | 1012.8 |
| 20260902005524 | 78 | 265 | 2.0 | 8.0 | 0.00 | 0.00 | 0.00 | 70 | 1012.8 |
| 20260902005029 | 78 | 216 | 3.0 | 8.0 | 0.00 | 0.00 | 0.00 | 69 | 1012.7 |
| 20260902004534 | 78 | 207 | 1.0 | 6.0 | 0.00 | 0.00 | 0.00 | 72 | 1012.8 |
| 20260902004039 | 78 | 218 | 2.0 | 6.0 | 0.00 | 0.00 | 0.00 | 72 | 1012.7 |
| 20260902003520 | 77 | 269 | 3.0 | 10.0 | 0.00 | 0.00 | 0.00 | 72 | 1012.7 |
| 20260902003022 | 77 | 213 | 3.0 | 10.0 | 0.00 | 0.00 | 0.00 | 71 | 1012.8 |
| 20260902002523 | 78 | 224 | 4.0 | 8.0 | 0.00 | 0.00 | 0.00 | 70 | 1012.8 |
| 20260902002047 | 78 | 240 | 3.0 | 9.0 | 0.00 | 0.00 | 0.00 | 70 | 1012.8 |
| 20260902001529 | 78 | 210 | 4.0 | 9.0 | 0.00 | 0.00 | 0.00 | 71 | 1012.9 |
| 20260902001055 | 78 | 263 | 5.0 | 8.0 | 0.00 | 0.00 | 0.00 | 70 | 1012.9 |
| 20260902000520 | 78 | 248 | 4.0 | 9.0 | 0.00 | 0.00 | 0.00 | 70 | 1012.9 |
| 20260902000020 | 78 | 195 | 3.0 | 9.0 | 0.00 | 0.00 | 0.00 | 71 | 1012.9 |
| 20260901235600 | 78 | 236 | 4.0 | 10.0 | 0.00 | 0.00 | 0.00 | 71 | 1013.0 |
| 20260901235041 | 78 | 287 | 3.0 | 10.0 | 0.00 | 0.00 | 0.00 | 70 | 1013.0 |
| 20260901234523 | 78 | 232 | 5.0 | 11.0 | 0.00 | 0.00 | 0.00 | 71 | 1013.0 |
| 20260901234024 | 78 | 242 | 5.0 | 11.0 | 0.00 | 0.00 | 0.00 | 71 | 1013.1 |
| 20260901233527 | 78 | 220 | 5.0 | 9.0 | 0.00 | 0.00 | 0.00 | 70 | 1013.2 |
| 20260901233028 | 78 | 199 | 5.0 | 10.0 | 0.00 | 0.00 | 0.00 | 70 | 1013.3 |
| 20260901232538 | 78 | 279 | 6.0 | 10.0 | 0.00 | 0.00 | 0.00 | 70 | 1013.3 |
| 20260901232040 | 78 | 212 | 5.0 | 10.0 | 0.00 | 0.00 | 0.00 | 70 | 1013.3 |
| 20260901231525 | 78 | 196 | 4.0 | 11.0 | 0.00 | 0.00 | 0.00 | 70 | 1013.3 |
| 20260901231028 | 78 | 291 | 5.0 | 11.0 | 0.00 | 0.00 | 0.00 | 70 | 1013.3 |
| 20260901230530 | 78 | 213 | 5.0 | 11.0 | 0.00 | 0.00 | 0.00 | 70 | 1013.3 |
| 20260901230037 | 78 | 238 | 5.0 | 11.0 | 0.00 | 0.00 | 0.00 | 70 | 1013.4 |
| 20260901225517 | 78 | 223 | 5.0 | 11.0 | 0.00 | 0.00 | 0.00 | 70 | 1013.4 |
| 20260901225021 | 78 | 207 | 6.0 | 11.0 | 0.00 | 0.00 | 0.00 | 71 | 1013.3 |
| 20260901224546 | 78 | 216 | 6.0 | 11.0 | 0.00 | 0.00 | 0.00 | 70 | 1013.3 |
| 20260901224025 | 79 | 294 | 6.0 | 13.0 | 0.00 | 0.00 | 0.00 | 69 | 1013.4 |
| 20260901223529 | 78 | 248 | 4.0 | 13.0 | 0.00 | 0.00 | 0.00 | 70 | 1013.4 |
| 20260901223033 | 78 | 269 | 5.0 | 13.0 | 0.00 | 0.00 | 0.00 | 71 | 1013.4 |
| 20260901222517 | 78 | 270 | 6.0 | 13.0 | 0.00 | 0.00 | 0.00 | 70 | 1013.4 |
| 20260901222022 | 78 | 254 | 7.0 | 13.0 | 0.00 | 0.00 | 0.00 | 70 | 1013.5 |
| 20260901221527 | 79 | 267 | 5.0 | 13.0 | 0.00 | 0.00 | 0.00 | 70 | 1013.5 |
| 20260901221025 | 79 | 258 | 5.0 | 13.0 | 0.00 | 0.00 | 0.00 | 71 | 1013.6 |
| 20260901220549 | 79 | 275 | 6.0 | 13.0 | 0.00 | 0.00 | 0.00 | 70 | 1013.7 |
| 20260901220053 | 79 | 274 | 6.0 | 14.0 | 0.00 | 0.00 | 0.00 | 70 | 1013.7 |
| 20260901215535 | 79 | 232 | 6.0 | 14.0 | 0.00 | 0.00 | 0.00 | 69 | 1013.8 |
| 20260901215041 | 79 | 276 | 7.0 | 12.0 | 0.00 | 0.00 | 0.00 | 69 | 1013.9 |
| 20260901214525 | 79 | 264 | 6.0 | 11.0 | 0.00 | 0.00 | 0.00 | 70 | 1013.9 |
| 20260901214023 | 79 | 194 | 6.0 | 13.0 | 0.00 | 0.00 | 0.00 | 70 | 1014.0 |
| 20260901213525 | 79 | 284 | 6.0 | 13.0 | 0.00 | 0.00 | 0.00 | 70 | 1014.0 |
| 20260901213026 | 79 | 294 | 4.0 | 13.0 | 0.00 | 0.00 | 0.00 | 70 | 1014.0 |
| 20260901212550 | 79 | 243 | 3.0 | 13.0 | 0.00 | 0.00 | 0.00 | 71 | 1014.0 |
| 20260901212035 | 79 | 277 | 6.0 | 13.0 | 0.00 | 0.00 | 0.00 | 69 | 1014.0 |
| 20260901211520 | 79 | 221 | 5.0 | 13.0 | 0.00 | 0.00 | 0.00 | 69 | 1013.9 |
| 20260901211020 | 80 | 274 | 7.0 | 12.0 | 0.00 | 0.00 | 0.00 | 68 | 1014.0 |
| 20260901210545 | 80 | 272 | 3.0 | 12.0 | 0.00 | 0.00 | 0.00 | 69 | 1014.0 |
| 20260901210051 | 80 | 252 | 5.0 | 11.0 | 0.00 | 0.00 | 0.00 | 69 | 1014.0 |
| 20260901205553 | 80 | 243 | 5.0 | 11.0 | 0.00 | 0.00 | 0.00 | 69 | 1014.0 |
| 20260901205020 | 80 | 257 | 6.0 | 11.0 | 0.00 | 0.00 | 0.00 | 69 | 1014.0 |
| 20260901204528 | 80 | 217 | 4.0 | 10.0 | 0.00 | 0.00 | 0.00 | 69 | 1014.1 |
| 20260901204036 | 80 | 264 | 4.0 | 10.0 | 0.00 | 0.00 | 0.00 | 69 | 1014.1 |
| 20260901203522 | 80 | 264 | 6.0 | 10.0 | 0.00 | 0.00 | 0.00 | 69 | 1014.1 |
| 20260901203026 | 80 | 281 | 4.0 | 9.0 | 0.00 | 0.00 | 0.00 | 69 | 1014.1 |
| 20260901202529 | 80 | 232 | 4.0 | 9.0 | 0.00 | 0.00 | 0.00 | 69 | 1014.1 |
| 20260901202030 | 79 | 273 | 5.0 | 10.0 | 0.00 | 0.00 | 0.00 | 70 | 1014.2 |
| 20260901201529 | 79 | 225 | 4.0 | 10.0 | 0.00 | 0.00 | 0.00 | 69 | 1014.2 |
| 20260901201035 | 80 | 284 | 5.0 | 10.0 | 0.00 | 0.00 | 0.00 | 69 | 1014.3 |
| 20260901200535 | 80 | 286 | 4.0 | 9.0 | 0.00 | 0.00 | 0.00 | 68 | 1014.4 |
| 20260901200039 | 80 | 207 | 4.0 | 10.0 | 0.00 | 0.00 | 0.00 | 69 | 1014.4 |
| 20260901195524 | 79 | 240 | 5.0 | 10.0 | 0.00 | 0.00 | 0.00 | 70 | 1014.3 |
| 20260901195026 | 79 | 240 | 4.0 | 9.0 | 0.00 | 0.00 | 0.00 | 70 | 1014.4 |
| 20260901194526 | 79 | 284 | 5.0 | 11.0 | 0.00 | 0.00 | 0.00 | 70 | 1014.4 |
| 20260901194027 | 79 | 244 | 5.0 | 11.0 | 0.00 | 0.00 | 0.00 | 70 | 1014.5 |
| 20260901193531 | 79 | 222 | 6.0 | 10.0 | 0.00 | 0.00 | 0.00 | 69 | 1014.5 |
| 20260901193025 | 79 | 248 | 6.0 | 10.0 | 0.00 | 0.00 | 0.00 | 69 | 1014.6 |
| 20260901192520 | 79 | 207 | 5.0 | 9.0 | 0.00 | 0.00 | 0.00 | 69 | 1014.5 |
| 20260901192040 | 79 | 231 | 4.0 | 10.0 | 0.00 | 0.00 | 0.00 | 69 | 1014.6 |
| 20260901191520 | 79 | 279 | 5.0 | 10.0 | 0.00 | 0.00 | 0.00 | 69 | 1014.7 |
| 20260901191050 | 79 | 263 | 5.0 | 10.0 | 0.00 | 0.00 | 0.00 | 68 | 1014.7 |
| 20260901190535 | 79 | 284 | 6.0 | 10.0 | 0.00 | 0.00 | 0.00 | 69 | 1014.7 |
| 20260901190020 | 79 | 284 | 5.0 | 10.0 | 0.00 | 0.00 | 0.00 | 68 | 1014.7 |
| 20260901185526 | 79 | 238 | 3.0 | 10.0 | 0.00 | 0.00 | 0.00 | 69 | 1014.7 |
| 20260901185023 | 79 | 242 | 4.0 | 9.0 | 0.00 | 0.00 | 0.00 | 69 | 1014.8 |
| 20260901184546 | 79 | 259 | 4.0 | 9.0 | 0.00 | 0.00 | 0.00 | 68 | 1014.8 |
| 20260901184021 | 79 | 274 | 3.0 | 9.0 | 0.00 | 0.00 | 0.00 | 69 | 1014.9 |
| 20260901183527 | 79 | 238 | 3.0 | 8.0 | 0.00 | 0.00 | 0.00 | 69 | 1014.9 |
| 20260901183050 | 79 | 234 | 3.0 | 7.0 | 0.00 | 0.00 | 0.00 | 69 | 1014.9 |
| 20260901182532 | 79 | 207 | 2.0 | 7.0 | 0.00 | 0.00 | 0.00 | 69 | 1014.9 |
| 20260901182055 | 79 | 238 | 2.0 | 8.0 | 0.00 | 0.00 | 0.00 | 69 | 1014.9 |
| 20260901181532 | 78 | 219 | 2.0 | 8.0 | 0.00 | 0.00 | 0.00 | 70 | 1014.9 |
| 20260901181036 | 78 | 211 | 3.0 | 9.0 | 0.00 | 0.00 | 0.00 | 69 | 1015.0 |
| 20260901180536 | 78 | 269 | 4.0 | 9.0 | 0.00 | 0.00 | 0.00 | 69 | 1014.9 |
| 20260901180019 | 78 | 261 | 2.0 | 7.0 | 0.00 | 0.00 | 0.00 | 70 | 1014.9 |
| 20260901175539 | 78 | 232 | 1.0 | 7.0 | 0.00 | 0.00 | 0.00 | 71 | 1014.8 |
| 20260901175018 | 78 | 284 | 2.0 | 9.0 | 0.00 | 0.00 | 0.00 | 71 | 1014.9 |
| 20260901174547 | 78 | 240 | 4.0 | 9.0 | 0.00 | 0.00 | 0.00 | 71 | 1014.8 |
| 20260901174019 | 78 | 240 | 2.0 | 6.0 | 0.00 | 0.00 | 0.00 | 72 | 1014.8 |
| 20260901173537 | 78 | 217 | 1.0 | 7.0 | 0.00 | 0.00 | 0.00 | 73 | 1014.8 |
| 20260901173033 | 77 | 216 | 3.0 | 7.0 | 0.00 | 0.00 | 0.00 | 72 | 1014.7 |
| 20260901172531 | 77 | 269 | 3.0 | 6.0 | 0.00 | 0.00 | 0.00 | 72 | 1014.8 |
| 20260901172033 | 77 | 273 | 1.0 | 5.0 | 0.00 | 0.00 | 0.00 | 72 | 1014.6 |
| 20260901171538 | 77 | 210 | 0.0 | 0.0 | 0.00 | 0.00 | 0.00 | 72 | 1014.7 |
| 20260901171037 | 77 | 254 | 0.0 | 0.0 | 0.00 | 0.00 | 0.00 | 72 | 1014.7 |
| 20260901170534 | 77 | 272 | 0.0 | 0.0 | 0.00 | 0.00 | 0.00 | 73 | 1014.8 |
| 20260901170031 | 77 | 257 | 0.0 | 0.0 | 0.00 | 0.00 | 0.00 | 73 | 1014.7 |
| 20260901165533 | 77 | 215 | 0.0 | 0.0 | 0.00 | 0.00 | 0.00 | 73 | 1014.6 |
| 20260901165028 | 77 | 205 | 0.0 | 0.0 | 0.00 | 0.00 | 0.00 | 72 | 1014.6 |
| 20260901164530 | 77 | 215 | 0.0 | 0.0 | 0.00 | 0.00 | 0.00 | 72 | 1014.6 |
| 20260901164026 | 77 | 267 | 0.0 | 0.0 | 0.00 | 0.00 | 0.00 | 72 | 1014.6 |
| 20260901163530 | 77 | 349 | 0.0 | 0.0 | 0.00 | 0.00 | 0.00 | 72 | 1014.5 |
| 20260901163032 | 76 | 216 | 0.0 | 0.0 | 0.00 | 0.00 | 0.00 | 74 | 1014.6 |
| 20260901162530 | 76 | 288 | 0.0 | 0.0 | 0.00 | 0.00 | 0.00 | 74 | 1014.5 |
| 20260901162035 | 75 | 334 | 0.0 | 0.0 | 0.00 | 0.00 | 0.00 | 76 | 1014.5 |
| 20260901161555 | 75 | 355 | 0.0 | 0.0 | 0.00 | 0.00 | 0.00 | 76 | 1014.5 |
| 20260901161028 | 74 | 355 | 0.0 | 0.0 | 0.00 | 0.00 | 0.00 | 77 | 1014.5 |
| 20260901160523 | 74 | 355 | 0.0 | 0.0 | 0.00 | 0.00 | 0.00 | 77 | 1014.5 |
| 20260901160028 | 74 | 323 | 0.0 | 0.0 | 0.00 | 0.00 | 0.00 | 79 | 1014.5 |
| 20260901155534 | 73 | 323 | 0.0 | 0.0 | 0.00 | 0.00 | 0.00 | 80 | 1014.4 |
| 20260901155032 | 72 | 32 | 0.0 | 0.0 | 0.00 | 0.00 | 0.00 | 81 | 1014.4 |
| 20260901154529 | 72 | 51 | 0.0 | 0.0 | 0.00 | 0.00 | 0.00 | 82 | 1014.3 |
| 20260901154026 | 71 | 52 | 0.0 | 0.0 | 0.00 | 0.00 | 0.00 | 82 | 1014.4 |
| 20260901153522 | 71 | 5 | 0.0 | 0.0 | 0.00 | 0.00 | 0.00 | 83 | 1014.4 |
| 20260901153023 | 70 | 49 | 0.0 | 0.0 | 0.00 | 0.00 | 0.00 | 85 | 1014.4 |
| 20260901152519 | 70 | 51 | 0.0 | 0.0 | 0.00 | 0.00 | 0.00 | 86 | 1014.4 |
| 20260901152023 | 69 | 59 | 0.0 | 0.0 | 0.00 | 0.00 | 0.00 | 86 | 1014.3 |
| 20260901151527 | 69 | 15 | 0.0 | 0.0 | 0.00 | 0.00 | 0.00 | 86 | 1014.3 |
| 20260901151024 | 69 | 72 | 0.0 | 4.0 | 0.00 | 0.00 | 0.00 | 86 | 1014.3 |
| 20260901150527 | 68 | 17 | 0.0 | 5.0 | 0.00 | 0.00 | 0.00 | 87 | 1014.3 |
| 20260901150029 | 68 | 67 | 1.0 | 5.0 | 0.00 | 0.00 | 0.00 | 87 | 1014.3 |
| 20260901145528 | 68 | 74 | 0.0 | 5.0 | 0.00 | 0.00 | 0.00 | 86 | 1014.2 |
| 20260901145058 | 68 | 60 | 0.0 | 4.0 | 0.00 | 0.00 | 0.00 | 87 | 1014.1 |
| 20260901144541 | 68 | 33 | 0.0 | 4.0 | 0.00 | 0.00 | 0.00 | 87 | 1014.1 |
| 20260901144025 | 68 | 71 | 2.0 | 7.0 | 0.00 | 0.00 | 0.00 | 88 | 1014.1 |
| 20260901143520 | 68 | 56 | 2.0 | 7.0 | 0.00 | 0.00 | 0.00 | 89 | 1014.2 |
| 20260901143022 | 67 | 64 | 3.0 | 7.0 | 0.00 | 0.00 | 0.00 | 89 | 1014.2 |
| 20260901142523 | 67 | 71 | 3.0 | 8.0 | 0.00 | 0.00 | 0.00 | 89 | 1014.2 |
| 20260901142019 | 67 | 52 | 5.0 | 8.0 | 0.00 | 0.00 | 0.00 | 90 | 1014.2 |
| 20260901141517 | 66 | 63 | 4.0 | 5.0 | 0.00 | 0.00 | 0.00 | 90 | 1014.1 |
| 20260901141025 | 66 | 46 | 3.0 | 6.0 | 0.00 | 0.00 | 0.00 | 90 | 1014.1 |
| 20260901140521 | 66 | 66 | 3.0 | 6.0 | 0.00 | 0.00 | 0.00 | 91 | 1014.0 |
| 20260901140020 | 65 | 55 | 2.0 | 5.0 | 0.00 | 0.00 | 0.00 | 91 | 1013.9 |
| 20260901135521 | 65 | 55 | 3.0 | 6.0 | 0.00 | 0.00 | 0.00 | 91 | 1013.9 |
| 20260901135022 | 65 | 56 | 3.0 | 6.0 | 0.00 | 0.00 | 0.00 | 91 | 1013.8 |
| 20260901134538 | 65 | 45 | 2.0 | 4.0 | 0.00 | 0.00 | 0.00 | 91 | 1013.8 |
| 20260901134034 | 65 | 46 | 3.0 | 5.0 | 0.00 | 0.00 | 0.00 | 91 | 1013.7 |
| 20260901133532 | 65 | 44 | 3.0 | 5.0 | 0.00 | 0.00 | 0.00 | 91 | 1013.7 |
| 20260901133029 | 65 | 44 | 2.0 | 4.0 | 0.00 | 0.00 | 0.00 | 91 | 1013.6 |
| 20260901132535 | 65 | 44 | 2.0 | 4.0 | 0.00 | 0.00 | 0.00 | 91 | 1013.6 |
| 20260901132036 | 65 | 44 | 2.0 | 5.0 | 0.00 | 0.00 | 0.00 | 91 | 1013.6 |
| 20260901131541 | 65 | 46 | 3.0 | 5.0 | 0.00 | 0.00 | 0.00 | 91 | 1013.4 |
| 20260901131025 | 65 | 34 | 3.0 | 5.0 | 0.00 | 0.00 | 0.00 | 91 | 1013.4 |
| 20260901130531 | 65 | 38 | 3.0 | 5.0 | 0.00 | 0.00 | 0.00 | 91 | 1013.3 |
| 20260901130027 | 65 | 43 | 3.0 | 6.0 | 0.00 | 0.00 | 0.00 | 91 | 1013.2 |
| 20260901125526 | 66 | 42 | 2.0 | 6.0 | 0.00 | 0.00 | 0.00 | 91 | 1013.1 |
| 20260901125033 | 66 | 49 | 2.0 | 5.0 | 0.00 | 0.00 | 0.00 | 91 | 1013.1 |
| 20260901124533 | 66 | 49 | 3.0 | 6.0 | 0.00 | 0.00 | 0.00 | 90 | 1013.0 |
| 20260901124032 | 66 | 45 | 3.0 | 6.0 | 0.00 | 0.00 | 0.00 | 90 | 1013.0 |
| 20260901123531 | 66 | 35 | 3.0 | 6.0 | 0.00 | 0.00 | 0.00 | 90 | 1013.0 |
| 20260901123025 | 66 | 58 | 3.0 | 7.0 | 0.00 | 0.00 | 0.00 | 90 | 1013.0 |
| 20260901122522 | 66 | 74 | 3.0 | 5.0 | 0.00 | 0.00 | 0.00 | 90 | 1013.0 |
| 20260901122029 | 66 | 62 | 3.0 | 7.0 | 0.00 | 0.00 | 0.00 | 90 | 1012.9 |
| 20260901121537 | 67 | 62 | 4.0 | 7.0 | 0.00 | 0.00 | 0.00 | 90 | 1013.0 |
| 20260901121020 | 67 | 94 | 3.0 | 5.0 | 0.00 | 0.00 | 0.00 | 90 | 1012.9 |
| 20260901120538 | 67 | 95 | 2.0 | 6.0 | 0.00 | 0.00 | 0.00 | 90 | 1012.9 |
| 20260901120021 | 67 | 100 | 2.0 | 6.0 | 0.00 | 0.00 | 0.00 | 90 | 1012.9 |
| 20260901115522 | 67 | 124 | 0.0 | 0.0 | 0.00 | 0.00 | 0.00 | 90 | 1013.0 |
| 20260901115028 | 67 | 123 | 0.0 | 1.0 | 0.00 | 0.00 | 0.00 | 90 | 1013.1 |
| 20260901114528 | 67 | 123 | 0.0 | 2.0 | 0.00 | 0.00 | 0.00 | 89 | 1013.1 |
| 20260901114030 | 67 | 122 | 0.0 | 3.0 | 0.00 | 0.00 | 0.00 | 89 | 1013.1 |
| 20260901113523 | 67 | 122 | 1.0 | 3.0 | 0.00 | 0.00 | 0.00 | 89 | 1013.0 |
| 20260901113027 | 67 | 122 | 1.0 | 3.0 | 0.00 | 0.00 | 0.00 | 89 | 1013.0 |
| 20260901112533 | 68 | 122 | 1.0 | 2.0 | 0.00 | 0.00 | 0.00 | 88 | 1013.0 |
| 20260901112019 | 68 | 122 | 1.0 | 3.0 | 0.00 | 0.00 | 0.00 | 88 | 1013.1 |
| 20260901111523 | 68 | 122 | 2.0 | 3.0 | 0.00 | 0.00 | 0.00 | 88 | 1013.1 |
| 20260901111030 | 68 | 122 | 2.0 | 3.0 | 0.00 | 0.00 | 0.00 | 88 | 1013.1 |
| 20260901110525 | 68 | 123 | 1.0 | 3.0 | 0.00 | 0.00 | 0.00 | 88 | 1013.2 |
| 20260901110053 | 68 | 123 | 1.0 | 3.0 | 0.00 | 0.00 | 0.00 | 88 | 1013.2 |
| 20260901105535 | 68 | 123 | 2.0 | 3.0 | 0.00 | 0.00 | 0.00 | 88 | 1013.2 |
| 20260901105019 | 68 | 123 | 1.0 | 3.0 | 0.00 | 0.00 | 0.00 | 88 | 1013.2 |
| 20260901104527 | 68 | 123 | 1.0 | 3.0 | 0.00 | 0.00 | 0.00 | 88 | 1013.2 |
| 20260901104027 | 68 | 123 | 0.0 | 3.0 | 0.00 | 0.00 | 0.00 | 88 | 1013.2 |
| 20260901103524 | 68 | 123 | 1.0 | 3.0 | 0.00 | 0.00 | 0.00 | 88 | 1013.2 |
| 20260901103019 | 68 | 123 | 1.0 | 3.0 | 0.00 | 0.00 | 0.00 | 89 | 1013.2 |
| 20260901102520 | 68 | 123 | 1.0 | 2.0 | 0.00 | 0.00 | 0.00 | 89 | 1013.3 |
| 20260901102024 | 68 | 123 | 0.0 | 0.0 | 0.00 | 0.00 | 0.00 | 89 | 1013.3 |
| 20260901101527 | 68 | 123 | 0.0 | 1.0 | 0.00 | 0.00 | 0.00 | 89 | 1013.3 |
| 20260901101028 | 68 | 123 | 0.0 | 1.0 | 0.00 | 0.00 | 0.00 | 89 | 1013.2 |
| 20260901100532 | 68 | 123 | 1.0 | 1.0 | 0.00 | 0.00 | 0.00 | 89 | 1013.3 |
| 20260901100032 | 68 | 123 | 0.0 | 2.0 | 0.00 | 0.00 | 0.00 | 89 | 1013.4 |
| 20260901095538 | 68 | 123 | 0.0 | 2.0 | 0.00 | 0.00 | 0.00 | 89 | 1013.3 |
| 20260901095037 | 68 | 123 | 1.0 | 2.0 | 0.00 | 0.00 | 0.00 | 89 | 1013.3 |
| 20260901094518 | 68 | 123 | 1.0 | 2.0 | 0.00 | 0.00 | 0.00 | 89 | 1013.4 |
| 20260901094023 | 68 | 123 | 1.0 | 3.0 | 0.00 | 0.00 | 0.00 | 89 | 1013.5 |
| 20260901093526 | 68 | 123 | 0.0 | 3.0 | 0.00 | 0.00 | 0.00 | 89 | 1013.3 |
| 20260901093033 | 68 | 122 | 0.0 | 0.0 | 0.00 | 0.00 | 0.00 | 89 | 1013.2 |
| 20260901092528 | 68 | 122 | 0.0 | 0.0 | 0.00 | 0.00 | 0.00 | 89 | 1013.1 |
| 20260901092024 | 68 | 153 | 0.0 | 0.0 | 0.00 | 0.00 | 0.00 | 89 | 1013.1 |
| 20260901091530 | 68 | 153 | 0.0 | 0.0 | 0.00 | 0.00 | 0.00 | 89 | 1013.0 |
| 20260901091028 | 68 | 165 | 0.0 | 0.0 | 0.00 | 0.00 | 0.00 | 89 | 1013.1 |
| 20260901090553 | 68 | 165 | 0.0 | 0.0 | 0.00 | 0.00 | 0.00 | 90 | 1013.1 |
| 20260901090026 | 68 | 165 | 0.0 | 0.0 | 0.00 | 0.00 | 0.00 | 89 | 1013.1 |
| 20260901085550 | 68 | 165 | 0.0 | 0.0 | 0.00 | 0.00 | 0.00 | 89 | 1013.1 |
| 20260901085033 | 68 | 165 | 0.0 | 0.0 | 0.00 | 0.00 | 0.00 | 89 | 1013.1 |
| 20260901084540 | 68 | 165 | 0.0 | 0.0 | 0.00 | 0.00 | 0.00 | 89 | 1013.1 |
| 20260901084021 | 68 | 165 | 0.0 | 0.0 | 0.00 | 0.00 | 0.00 | 89 | 1013.2 |
| 20260901083522 | 68 | 165 | 0.0 | 0.0 | 0.00 | 0.00 | 0.00 | 89 | 1013.2 |
| 20260901083027 | 68 | 165 | 0.0 | 0.0 | 0.00 | 0.00 | 0.00 | 89 | 1013.3 |
| 20260901082531 | 68 | 165 | 0.0 | 0.0 | 0.00 | 0.00 | 0.00 | 89 | 1013.2 |
| 20260901082029 | 68 | 165 | 0.0 | 0.0 | 0.00 | 0.00 | 0.00 | 89 | 1013.3 |
| 20260901081518 | 69 | 165 | 0.0 | 0.0 | 0.00 | 0.00 | 0.00 | 89 | 1013.3 |
| 20260901081020 | 69 | 165 | 0.0 | 0.0 | 0.00 | 0.00 | 0.00 | 89 | 1013.2 |
| 20260901080545 | 69 | 165 | 0.0 | 0.0 | 0.00 | 0.00 | 0.00 | 89 | 1013.2 |
| 20260901080026 | 69 | 165 | 0.0 | 0.0 | 0.00 | 0.00 | 0.00 | 89 | 1013.2 |
| 20260901075533 | 69 | 165 | 0.0 | 0.0 | 0.00 | 0.00 | 0.00 | 89 | 1013.2 |
| 20260901075033 | 69 | 165 | 0.0 | 0.0 | 0.00 | 0.00 | 0.00 | 89 | 1013.3 |
| 20260901074559 | 69 | 165 | 0.0 | 0.0 | 0.00 | 0.00 | 0.00 | 89 | 1013.3 |
| 20260901074046 | 69 | 165 | 0.0 | 0.0 | 0.00 | 0.00 | 0.00 | 89 | 1013.4 |
| 20260901073519 | 69 | 165 | 0.0 | 0.0 | 0.00 | 0.00 | 0.00 | 89 | 1013.4 |
| 20260901073022 | 69 | 165 | 0.0 | 0.0 | 0.00 | 0.00 | 0.00 | 89 | 1013.4 |
| 20260901072523 | 69 | 165 | 0.0 | 0.0 | 0.00 | 0.00 | 0.00 | 89 | 1013.3 |
| 20260901072042 | 69 | 173 | 0.0 | 0.0 | 0.00 | 0.00 | 0.00 | 89 | 1013.3 |
| 20260901071519 | 69 | 173 | 0.0 | 0.0 | 0.00 | 0.00 | 0.00 | 89 | 1013.3 |
| 20260901071037 | 69 | 173 | 0.0 | 0.0 | 0.00 | 0.00 | 0.00 | 89 | 1013.3 |
| 20260901070542 | 69 | 173 | 0.0 | 0.0 | 0.00 | 0.00 | 0.00 | 89 | 1013.3 |
| 20260901070024 | 69 | 172 | 0.0 | 0.0 | 0.00 | 0.00 | 0.00 | 89 | 1013.3 |
| 20260901065532 | 69 | 172 | 0.0 | 0.0 | 0.00 | 0.00 | 0.00 | 89 | 1013.3 |
| 20260901065030 | 69 | 172 | 0.0 | 2.0 | 0.00 | 0.00 | 0.00 | 89 | 1013.3 |
| 20260901064530 | 69 | 172 | 0.0 | 2.0 | 0.00 | 0.00 | 0.00 | 89 | 1013.3 |
| 20260901064025 | 69 | 172 | 0.0 | 2.0 | 0.00 | 0.00 | 0.00 | 89 | 1013.3 |
| 20260901063551 | 69 | 172 | 0.0 | 0.0 | 0.00 | 0.00 | 0.00 | 89 | 1013.3 |
| 20260901063026 | 69 | 171 | 0.0 | 0.0 | 0.00 | 0.00 | 0.00 | 89 | 1013.2 |
| 20260901062553 | 69 | 171 | 0.0 | 0.0 | 0.00 | 0.00 | 0.00 | 89 | 1013.2 |
| 20260901062032 | 69 | 171 | 0.0 | 0.0 | 0.00 | 0.00 | 0.00 | 88 | 1013.2 |
| 20260901061519 | 69 | 171 | 0.0 | 0.0 | 0.00 | 0.00 | 0.00 | 88 | 1013.1 |
| 20260901061022 | 69 | 171 | 0.0 | 0.0 | 0.00 | 0.00 | 0.00 | 88 | 1013.1 |
| 20260901060548 | 69 | 171 | 0.0 | 0.0 | 0.00 | 0.00 | 0.00 | 88 | 1013.1 |
| 20260901060030 | 69 | 171 | 0.0 | 0.0 | 0.00 | 0.00 | 0.00 | 88 | 1013.2 |
| 20260901055524 | 70 | 171 | 0.0 | 0.0 | 0.00 | 0.00 | 0.00 | 88 | 1013.1 |
| 20260901055050 | 70 | 171 | 0.0 | 0.0 | 0.00 | 0.00 | 0.00 | 88 | 1013.1 |
| 20260901054531 | 70 | 170 | 0.0 | 0.0 | 0.00 | 0.00 | 0.00 | 88 | 1013.1 |
| 20260901054037 | 70 | 170 | 0.0 | 0.0 | 0.00 | 0.00 | 0.00 | 88 | 1013.1 |
| 20260901053524 | 70 | 170 | 0.0 | 0.0 | 0.00 | 0.00 | 0.00 | 88 | 1013.1 |
| 20260901053029 | 70 | 169 | 0.0 | 0.0 | 0.00 | 0.00 | 0.00 | 88 | 1013.0 |
| 20260901052528 | 70 | 169 | 0.0 | 0.0 | 0.00 | 0.00 | 0.00 | 88 | 1013.0 |
| 20260901052031 | 70 | 169 | 0.0 | 0.0 | 0.00 | 0.00 | 0.00 | 88 | 1013.1 |
| 20260901051528 | 70 | 169 | 0.0 | 0.0 | 0.00 | 0.00 | 0.00 | 88 | 1013.0 |
| 20260901051024 | 70 | 170 | 0.0 | 0.0 | 0.00 | 0.00 | 0.00 | 88 | 1013.0 |
| 20260901050544 | 70 | 170 | 0.0 | 0.0 | 0.00 | 0.00 | 0.00 | 88 | 1013.0 |
| 20260901050027 | 70 | 169 | 0.0 | 0.0 | 0.00 | 0.00 | 0.00 | 88 | 1013.0 |